Waarnemingen

Advertentie
Mijn weer
Avignon, Frankrijk (7563): temperatuur & dauwpunt: 15.01.2017 01:00:00 - 21.01.2017 01:00:00 (CET)Avignon, Frankrijk (7563): temperatuur 5cm: 15.01.2017 01:00:00 - 21.01.2017 01:00:00 (CET)Avignon, Frankrijk (7563): windsnelheid & windstoten: 15.01.2017 01:00:00 - 21.01.2017 01:00:00 (CET)Avignon, Frankrijk (7563): windrichting: 15.01.2017 01:00:00 - 21.01.2017 01:00:00 (CET)Avignon, Frankrijk (7563): luchtdruk: 15.01.2017 01:00:00 - 21.01.2017 01:00:00 (CET)Avignon, Frankrijk (7563): zicht: 15.01.2017 01:00:00 - 21.01.2017 01:00:00 (CET)Avignon, Frankrijk (7563): neerslag: 15.01.2017 01:00:00 - 21.01.2017 01:00:00 (CET)
Datum & Tijd tt [°C] td [°C] tt 5cm [°C] ff [km/u] ff [kn] fx [km/u] fx [kn] dd ppp [hPa] vv [km] rr [mm]
21.01.2017 01:00:00 - - - - - - - - - - -
21.01.2017 00:00:00 2,3 -3,2 1,3 7 4 15 8 NNO 1027,4 8 0,0
20.01.2017 23:00:00 2,0 -3,3 0,9 6 4 15 8 N 1027,5 8 0,0
20.01.2017 22:00:00 2,3 -3,6 -0,3 8 4 17 9 N 1027,2 8 0,0
20.01.2017 21:00:00 2,0 -3,9 -1,5 6 4 14 8 NNO 1027,4 8 0,0
20.01.2017 20:00:00 1,7 -3,8 - 8 4 15 8 N 1027,3 8 0,0
20.01.2017 19:00:00 3,5 -3,3 -1,4 9 5 13 7 N 1027,0 10 0,0
20.01.2017 18:00:00 4,3 -3,0 0,8 8 4 10 6 NNW 1026,5 12 0,0
20.01.2017 17:00:00 7,9 -2,5 9,1 5 3 18 10 NW 1026,4 13 0,0
20.01.2017 16:00:00 8,9 -2,7 13,0 14 7 19 10 NNW 1026,2 10 0,0
20.01.2017 15:00:00 8,6 -3,0 15,3 10 5 14 8 N 1026,6 10 0,0
20.01.2017 14:00:00 7,5 -3,4 14,1 8 5 16 9 N 1027,4 10 0,0
20.01.2017 13:00:00 5,6 -3,8 10,1 8 4 13 7 N 1028,2 8 0,0
20.01.2017 12:00:00 3,5 -3,8 4,9 7 4 12 7 N 1029,3 6 0,0
20.01.2017 11:00:00 1,0 -4,4 0,3 9 5 13 7 N 1029,8 8 0,0
20.01.2017 10:00:00 -1,0 -3,8 -5,5 4 2 7 4 N 1029,7 6 0,0
20.01.2017 09:00:00 -5,7 -7,2 -9,7 2 1 5 3 O 1029,4 4,0 0,0
20.01.2017 08:00:00 -7,0 -8,5 -10,1 0 0 4 2 N 1029,2 4,1 0,0
20.01.2017 07:00:00 -5,8 -7,5 -10,4 2 1 5 3 ZO 1028,8 4,6 0,0
20.01.2017 06:00:00 -6,1 -7,9 -10,4 3 2 7 4 OZO 1028,6 5 0,0
20.01.2017 05:00:00 -6,2 -8,0 -9,9 4 2 6 3 ONO 1028,7 6 0,0
20.01.2017 04:00:00 -6,5 -8,3 -9,8 3 2 5 3 OZO 1028,9 6 0,0
20.01.2017 03:00:00 -7,0 -8,9 -9,6 2 1 7 4 ONO 1029,0 6 0,0
20.01.2017 02:00:00 -6,4 -9,0 -9,8 0 0 4 2 N 1028,7 6 0,0
20.01.2017 01:00:00 -3,8 -6,7 -9,4 3 2 8 5 NNO 1028,7 8 0,0
20.01.2017 00:00:00 -6,2 -8,6 -9,3 0 0 4 2 N 1028,9 7 0,0
19.01.2017 23:00:00 -5,2 -7,8 -9,1 0 0 6 3 N 1028,6 8 0,0
19.01.2017 22:00:00 -4,4 -7,7 -8,7 4 2 7 4 ZZO 1028,2 7 0,0
19.01.2017 21:00:00 -4,6 -7,9 -8,0 6 3 9 5 ZZO 1027,9 9 0,0
19.01.2017 20:00:00 -3,0 -7,0 -7,5 3 1 9 5 ZO 1027,4 12 0,0
19.01.2017 19:00:00 -2,0 -6,9 -6,5 0 0 8 4 N 1027,0 11 0,0
19.01.2017 18:00:00 0,4 -6,5 -4,5 5 3 14 7 NW 1026,3 14 0,0
19.01.2017 17:00:00 3,6 -5,6 2,4 10 6 21 11 NNW 1026,1 17 0,0
19.01.2017 16:00:00 6,1 -5,6 9,2 13 7 20 11 NNW 1026,0 19 0,0
19.01.2017 15:00:00 6,9 -5,8 11,3 15 8 21 12 NNW 1026,3 12 0,0
19.01.2017 14:00:00 6,4 -6,6 11,0 11 6 27 14 N 1026,8 10 0,0
19.01.2017 13:00:00 5,7 -6,2 8,7 17 9 32 18 N 1027,0 10 0,0
19.01.2017 12:00:00 4,3 -6,6 6,0 14 8 26 14 N 1027,5 9 0,0
19.01.2017 11:00:00 2,0 -6,8 -0,1 12 6 25 13 NNO 1027,9 8 0,0
19.01.2017 10:00:00 -1,0 -6,6 -4,4 12 7 16 9 N 1027,6 10 0,0
19.01.2017 09:00:00 -3,5 -6,5 -10,7 3 2 8 4 NO 1027,1 10 0,0
19.01.2017 08:00:00 -5,1 -8,5 -10,9 3 2 9 5 N 1026,6 11 0,0
19.01.2017 07:00:00 -5,3 -9,0 -9,7 4 2 8 4 NNO 1025,9 12 0,0
19.01.2017 06:00:00 -4,5 -8,4 -10,2 3 2 12 6 N 1025,5 12 0,0
19.01.2017 05:00:00 -3,4 -7,7 -8,8 4 2 14 8 NNO 1025,2 12 0,0
19.01.2017 04:00:00 -2,4 -7,3 -4,6 9 5 22 12 N 1025,2 14 0,0
19.01.2017 03:00:00 -1,8 -6,9 -5,1 15 8 25 13 N 1025,0 15 0,0
19.01.2017 02:00:00 -2,5 -7,2 -4,9 9 5 19 11 N 1024,7 14 0,0
19.01.2017 01:00:00 -1,8 -7,3 -3,4 12 7 29 16 N 1024,2 16 0,0
19.01.2017 00:00:00 -1,1 -7,3 -2,5 18 10 34 18 N 1023,9 17 0,0
18.01.2017 23:00:00 -0,8 -7,2 -2,1 21 12 38 20 N 1023,8 18 0,0
18.01.2017 22:00:00 -0,6 -7,2 -1,9 20 11 46 25 N 1023,5 17 0,0
18.01.2017 21:00:00 -0,4 -7,2 -1,8 27 15 53 28 N 1023,3 18 0,0
18.01.2017 20:00:00 -0,2 -7,3 -1,1 32 18 50 27 N 1022,6 20 0,0
18.01.2017 19:00:00 0,1 -7,4 -0,8 29 16 53 29 N 1022,9 22 0,0
18.01.2017 18:00:00 0,6 -7,4 -0,3 32 17 50 27 N 1022,4 20 0,0
18.01.2017 17:00:00 1,8 -7,3 2,3 29 16 51 28 N 1022,4 22 0,0
18.01.2017 16:00:00 2,9 -7,3 6,0 29 16 51 27 N 1021,9 20 0,0
18.01.2017 15:00:00 3,3 -7,2 5,2 32 18 48 26 N 1021,7 22 0,0
18.01.2017 14:00:00 2,7 -7,5 5,2 30 16 44 24 N 1021,8 20 0,0
18.01.2017 13:00:00 2,2 -6,9 1,2 24 13 47 26 N 1022,5 19 0,0
18.01.2017 12:00:00 0,7 -6,9 1,0 22 12 53 29 N 1022,7 20 0,0
18.01.2017 11:00:00 0,3 -7,0 -0,4 28 15 54 29 N 1022,5 14 0,0
18.01.2017 10:00:00 -0,3 -7,1 -2,3 34 18 58 31 N 1021,9 20 0,0
18.01.2017 09:00:00 -1,9 -7,4 -2,9 32 18 57 31 N 1021,3 22 0,0
18.01.2017 08:00:00 -2,0 -7,5 - 31 17 54 29 N 1020,9 10 0,0
18.01.2017 07:00:00 -1,9 -7,4 -2,8 37 20 59 32 N 1020,3 25 0,0
18.01.2017 06:00:00 -2,0 -7,5 -2,8 31 17 56 30 N 1020,3 25 0,0
18.01.2017 05:00:00 -1,8 -7,3 -2,6 37 20 63 34 N 1020,0 27 0,0
18.01.2017 04:00:00 -1,8 -7,3 -2,5 34 18 61 33 N 1020,6 28 0,0
18.01.2017 03:00:00 -1,5 -7,2 -2,3 36 19 60 33 N 1020,6 29 0,0
18.01.2017 02:00:00 -1,4 -7,3 -2,1 38 20 68 37 N 1020,4 31 0,0
18.01.2017 01:00:00 -1,2 -7,4 -1,9 36 20 57 31 N 1020,4 32 0,0
18.01.2017 00:00:00 -1,0 -7,2 -1,8 37 20 54 29 N 1020,4 32 0,0
17.01.2017 23:00:00 -0,8 -7,2 -1,5 34 18 57 31 N 1020,2 33 0,0
17.01.2017 22:00:00 -0,3 -7,1 -1,1 36 20 63 34 N 1019,7 34 0,0
17.01.2017 21:00:00 0,0 -7,3 -0,9 40 22 67 36 N 1019,4 36 0,0
17.01.2017 20:00:00 0,3 -7,2 -0,5 42 23 65 35 N 1018,8 37 0,0
17.01.2017 19:00:00 0,7 -6,9 -0,2 38 21 68 37 N 1018,3 40 0,0
17.01.2017 18:00:00 0,7 -7,1 -0,1 39 21 66 35 N 1018,1 41 0,0
17.01.2017 17:00:00 1,3 -6,8 1,6 44 24 66 36 N 1017,6 23 0,0
17.01.2017 16:00:00 2,1 -6,7 4,5 44 24 72 39 N 1017,5 24 0,0
17.01.2017 15:00:00 2,5 -6,9 5,9 44 24 69 37 N 1016,6 25 0,0
17.01.2017 14:00:00 2,7 -6,7 5,9 39 21 78 42 N 1016,9 19 0,0
17.01.2017 13:00:00 2,1 -7,8 3,8 48 26 79 43 N 1017,0 18 0,0
17.01.2017 12:00:00 1,4 -7,2 1,9 42 23 76 41 N 1017,2 20 0,0
17.01.2017 11:00:00 0,5 -7,3 0,5 44 24 73 40 N 1017,6 20 0,0
17.01.2017 10:00:00 -0,2 -7,0 -1,3 35 19 63 34 N 1017,6 20 0,0
17.01.2017 09:00:00 -1,3 -7,4 -2,4 35 19 63 34 N 1017,0 27 0,0
17.01.2017 08:00:00 -1,6 -7,3 -2,4 37 20 63 34 N 1016,9 33 0,0
17.01.2017 07:00:00 -1,5 -7,2 -2,2 35 19 72 39 N 1016,3 10 0,0
17.01.2017 06:00:00 -1,2 -7,1 -1,9 39 21 66 35 N 1016,0 10 0,0
17.01.2017 05:00:00 -1,0 -7,2 -1,9 39 21 67 36 N 1015,8 34 0,0
17.01.2017 04:00:00 -0,7 -7,1 -1,5 42 23 65 35 N 1015,7 10 0,0
17.01.2017 03:00:00 -0,4 -7,0 -1,2 44 24 73 40 N 1015,9 41 0,0
17.01.2017 02:00:00 -0,2 -6,8 -1,1 35 19 67 36 N 1015,6 41 0,0
17.01.2017 01:00:00 0,2 -6,4 -0,6 39 21 67 36 N 1016,1 40 0,0
17.01.2017 00:00:00 0,3 -6,6 -0,6 41 22 66 35 N 1016,1 42 0,0
16.01.2017 23:00:00 0,6 -6,5 -0,3 39 21 71 38 N 1016,3 42 0,0
16.01.2017 22:00:00 1,1 -6,5 0,2 41 22 81 44 N 1016,1 45 0,0
16.01.2017 21:00:00 1,6 -5,8 0,7 44 24 80 43 N 1016,0 47 0,0
16.01.2017 20:00:00 2,1 -5,8 0,7 39 21 77 42 N 1015,8 58 0,0
16.01.2017 19:00:00 1,8 -3,9 0,9 46 25 71 39 N 1015,0 55 0,0
16.01.2017 18:00:00 2,7 -4,8 1,9 39 21 75 40 N 1015,3 60 0,0
16.01.2017 17:00:00 3,6 -5,9 3,1 44 24 75 40 N 1015,1 33 0,0
16.01.2017 16:00:00 4,6 -5,2 5,8 44 24 68 37 N 1015,2 21 0,0
16.01.2017 15:00:00 5,8 -3,8 8,4 43 23 77 41 N 1015,4 19 0,0
16.01.2017 14:00:00 5,5 -4,1 8,6 48 26 77 42 N 1014,9 21 0,0
16.01.2017 13:00:00 5,4 -3,2 7,3 41 22 76 41 N 1015,8 23 0,0
16.01.2017 12:00:00 5,3 -4,0 5,6 44 24 72 39 N 1016,1 20 0,0
16.01.2017 11:00:00 4,5 -3,8 4,1 48 26 74 40 N 1016,0 10 0,0
16.01.2017 10:00:00 3,6 -4,1 1,9 36 19 56 30 N 1016,3 40 0,0
16.01.2017 09:00:00 2,1 -3,6 0,1 31 17 50 27 N 1016,4 33 0,0
16.01.2017 08:00:00 1,0 -3,3 -1,5 22 12 37 20 N 1016,5 35 0,0
16.01.2017 07:00:00 0,4 -3,5 -2,3 11 6 25 14 N 1017,2 35 0,0
16.01.2017 06:00:00 0,1 -3,8 -1,6 15 8 28 15 N 1017,2 32 0,0
16.01.2017 05:00:00 0,1 -3,5 -1,3 19 10 30 16 N 1017,5 33 0,0
16.01.2017 04:00:00 0,6 -3,3 -0,4 22 12 40 21 N 1018,0 30 0,0
16.01.2017 03:00:00 0,7 -3,6 -0,2 24 13 41 22 N 1018,6 37 0,0
16.01.2017 02:00:00 1,2 -3,3 -0,1 23 12 41 22 N 1019,0 37 0,0
16.01.2017 01:00:00 1,4 -3,3 0,6 31 17 56 30 NNW 1019,5 43 0,0
16.01.2017 00:00:00 1,8 -3,3 1,0 31 17 56 30 N 1019,4 49 0,0
15.01.2017 23:00:00 1,9 -3,4 1,0 32 17 51 28 N 1020,0 45 0,0
15.01.2017 22:00:00 2,4 -3,1 1,6 32 17 62 33 N 1020,6 46 0,0
15.01.2017 21:00:00 3,0 -2,9 2,3 43 23 66 36 N 1020,0 52 0,0
15.01.2017 20:00:00 3,1 -3,1 2,2 36 19 64 34 N 1020,6 58 0,0
15.01.2017 19:00:00 3,5 -3,5 2,6 37 20 64 35 N 1020,6 60 0,0
15.01.2017 18:00:00 3,8 -3,9 3,1 32 18 68 37 N 1020,7 60 0,0
15.01.2017 17:00:00 4,4 -4,4 3,6 36 19 82 44 N 1019,6 60 0,0
15.01.2017 16:00:00 5,3 -4,6 6,7 46 25 89 48 N 1019,5 21 0,0
15.01.2017 15:00:00 5,9 -5,1 9,1 50 27 84 46 N 1018,7 17 0,0
15.01.2017 14:00:00 5,9 -5,1 8,5 56 31 87 47 N 1018,9 16 0,0
15.01.2017 13:00:00 5,5 -3,9 7,7 56 30 84 45 N 1018,6 17 0,0
15.01.2017 12:00:00 5,3 -3,8 5,8 51 28 88 47 N 1019,5 22 0,0
15.01.2017 11:00:00 4,6 -2,5 4,0 41 22 84 45 N 1019,5 29 0,0
15.01.2017 10:00:00 3,3 -2,5 2,0 42 23 70 38 N 1019,4 20 0,0
15.01.2017 09:00:00 2,1 -2,8 1,0 42 23 79 43 N 1018,9 23 0,0
15.01.2017 08:00:00 1,7 -3,0 0,6 46 25 75 40 N 1017,7 55 0,0
15.01.2017 07:00:00 1,4 -2,7 0,0 35 19 55 30 N 1017,8 60 0,0
15.01.2017 06:00:00 1,3 -2,8 -0,3 26 14 45 24 NNW 1017,7 60 0,0
15.01.2017 05:00:00 1,4 -2,9 0,5 23 12 35 19 N 1017,9 60 0,0
15.01.2017 04:00:00 2,0 -3,1 0,8 17 9 29 16 N 1018,5 60 0,0
15.01.2017 03:00:00 1,8 -3,7 0,1 11 6 35 19 N 1018,9 60 0,0
15.01.2017 02:00:00 2,0 -3,1 0,7 20 11 38 21 N 1018,8 60 0,0
15.01.2017 01:00:00 1,4 -2,9 0,1 26 14 44 24 NNW 1019,0 60 0,0

tt = temperatuur
td = dauwpunt
tt 5cm = temperatuur 5cm
ff = windsnelheid
fx = windstoten
dd = windrichting
ppp = luchtdruk
vv = zicht
rr = neerslag

Weerstations in de omgeving